Regional Weather Roundup
Issued by NWS Glasgow, MT

Home | Current Version | Previous Version | Text Only | Print | Product List | Glossary On
Versions: 1 2 3 4 5 6 7 8 9 10 11 12 13 14 15 16 17 18 19 20 21 22 23 24 25 26 27 28 29 30 31 32 33 34 35 36 37 38 39 40 41 42 43 44 45 46
000
ASUS45 KGGW 260015
RWRGGW
HOURLY WEATHER ROUNDUP FOR NORTHEAST MONTANA
NATIONAL WEATHER SERVICE GLASGOW MONTANA
500 PM MST THU DEC 25 2014

NOTE: "FAIR" INDICATES FEW OR NO CLOUDS BELOW 12,000 FEET WITH NO
SIGNIFICANT WEATHER AND/OR OBSTRUCTIONS TO VISISBILITY.

NORTHEAST MONTANA


CITY           SKY/WX    TMP DP  RH WIND       PRES   REMARKS
GLASGOW        CLOUDY    22  15  75 N7        30.01R
6HR MIN TEMP:  22; 6HR MAX TEMP:  25;

PLENTYWOOD       N/A     18  14  84 NW13G22     N/A
WOLF POINT     CLOUDY    22  14  71 N12       30.03R
JORDAN           N/A     26  17  68 N6        29.99R
WINNETT          N/A     25  22  88 NW10        N/A
SIDNEY         CLOUDY    21  16  79 NW9       30.02R
GLENDIVE       CLOUDY    21  18  86 N12       29.99R
MALTA            N/A     28  20  71 NW6         N/A
SCOBEY           N/A     14   6  70 NW5       29.98

FORT PECK REPORTS


CITY           SKY/WX    TMP DP  RH WIND       PRES   REMARKS
FORT PECK        N/A     23  18  81 N10         N/A
THE PINES        N/A     25  20  81 NW5         N/A

SOUTHEAST MONTANA


CITY           SKY/WX    TMP DP  RH WIND       PRES   REMARKS
BILLINGS       FLURRIES  24  20  84 E6        29.97R
MILES CITY     CLOUDY    24  19  81 N9        29.99R
BAKER          CLOUDY    22  17  81 NW13      29.94R
LIVINGSTON     CLOUDY    20  17  88 SE3       29.91R

CENTRAL MONTANA


CITY           SKY/WX    TMP DP  RH WIND       PRES   REMARKS
HAVRE          CLOUDY    25  20  81 SW9       29.97S
LEWISTOWN      CLOUDY    21  18  88 W3        29.94R
GREAT FALLS    CLEAR     20  14  77 S10       29.92F
CUT BANK       CLEAR     12  11  95 S7        29.89R FOG
HELENA         CLEAR     24  16  71 SW3       29.94S
BUTTE          PTCLDY    18  12  77 NW6       29.90R
BOZEMAN        CLEAR     11   8  88 S7        29.93R

WESTERN MONTANA


CITY           SKY/WX    TMP DP  RH WIND       PRES   REMARKS
MISSOULA       CLOUDY    30  27  88 CALM      30.00R
KALISPELL      NOT AVBL

NORTH DAKOTA


CITY           SKY/WX    TMP DP  RH WIND       PRES   REMARKS
WILLISTON      CLOUDY    22  15  75 NW12      29.99R
DICKINSON      CLOUDY    24  16  71 NW15      29.90R
MINOT          CLOUDY    24  18  77 NW12      29.94R
BISMARCK       CLOUDY    28  22  78 N12       29.92R

SOUTHERN SASKATCHEWAN


CITY           SKY/WX    TMP DP  RH WIND       PRES   REMARKS
REGINA         CLOUDY     7   3  85 NW9       30.02R
ESTEVAN        PTCLDY    12   9  85 NW17      29.98R WCI  -5
SWIFT CURRENT  LGT SNOW   1   0  92 CALM      29.98R



USA.gov is the U.S. government's official web portal to all federal, state and local government web resources and services.